Hourly Data Report for October 26, 2015

All times are specified in Local Standard Time (LST). Add 1 hour to adjust for Daylight Saving Time where and when it is observed.

BATHURST A
NEW BRUNSWICK

47°37'47.000" N
65°44'20.000" W
58.80 m
8100505
71574
ZBF

Download Data

Hourly Data (October 2015)
Hourly Data Report for October 26, 2015
Temp Definition
°C
Dew Point Temp Definition
°C
Rel Hum Definition
%
Wind Dir Definition
10's deg

Wind Spd Definition
km/h
Visibility Definition
km
Stn Press Definition
kPa
Hmdx Definition


Wind Chill Definition


Weather Definition


TIME
00:00 Legend Double Dagger 5.4 -0.4 66 31 21 24.1 100.88     LegendNANA
01:00 Legend Double Dagger 4.1 -1.1 69 31 17 24.1 100.98     LegendNANA
02:00 Legend Double Dagger 3.4 -1.8 69 32 16 24.1 101.10     Mostly Cloudy
03:00 Legend Double Dagger 3.3 -2.2 67 32 15 24.1 101.17     LegendNANA
04:00 Legend Double Dagger 2.6 -2.5 69 31 17 24.1 101.23     LegendNANA
05:00 Legend Double Dagger 1.5 -3.0 72 31 9 24.1 101.33     Mainly Clear
06:00 Legend Double Dagger 1.2 -3.1 73 31 12 24.1 101.41     LegendNANA
07:00 Legend Double Dagger 1.1 -4.4 67 32 17 24.1 101.52     LegendNANA
08:00 Legend Double Dagger 1.6 -4.5 64 31 12 24.1 101.64     Mainly Clear
09:00 Legend Double Dagger 1.7 -4.6 63 31 12 24.1 101.73     LegendNANA
10:00 Legend Double Dagger 2.2 -5.5 57 30 19 24.1 101.77     LegendNANA
11:00 Legend Double Dagger 2.4 -6.0 54 30 18 24.1 101.83     Mostly Cloudy
12:00 Legend Double Dagger 2.1 -6.3 54 33 14 24.1 101.86     LegendNANA
13:00 Legend Double Dagger 2.5 -6.6 51 30 14 24.1 101.88     LegendNANA
14:00 Legend Double Dagger 2.0 -7.6 49 31 17 24.1 101.89     Mostly Cloudy
15:00 Legend Double Dagger 2.9 -8.5 43 33 16 24.1 101.89     LegendNANA
16:00 Legend Double Dagger 2.7 -9.3 41 32 15 24.1 101.91     LegendNANA
17:00 Legend Double Dagger 1.8 -9.2 44 31 4 24.1 101.98     Clear
18:00 Legend Double Dagger -0.7 -8.2 57 31 5 24.1 102.06   -2 LegendNANA
19:00 Legend Double Dagger -1.5 -8.3 60 29 6 24.1 102.14   -4 LegendNANA
20:00 Legend Double Dagger -4.0 -8.7 70 26 5 24.1 102.19   -6 Clear
21:00 Legend Double Dagger -2.9 -8.6 65 25 9 24.1 102.21   -6 LegendNANA
22:00 Legend Double Dagger -3.1 -8.4 67 26 10 24.1 102.22   -7 LegendNANA
23:00 Legend Double Dagger -4.1 -8.3 73 25 9 24.1 102.25   -8 Clear

Notes on Data Quality.

Legend

  • E = Estimated
  • M = Missing
  • NA = Not Available
  • ‡ = Partner data that is not subject to review by the National Climate Archives
Date modified: